�N����,����,�~����,�C��,���x,�C��,����,���ϕ���,�ő�u�ԕ���,�ő厞����,���˗�,�I�_���x,�n�����x,�ő啗���N��,DTYPE
"20/08/20","00:10",0.0,26.4,76.7,1005.5,316.0,1.2,2.4,340.2,0.00,22.0,28.5,"00:00:08",1
"20/08/20","00:20",0.0,26.3,77.2,1005.7,314.3,1.2,3.2,340.0,0.00,22.0,28.4,"00:19:52",1
"20/08/20","00:30",0.0,26.2,77.6,1005.2,305.3,1.2,3.4,338.1,0.00,22.0,28.1,"00:20:16",1
"20/08/20","00:40",0.0,26.1,77.8,1005.7,278.3,1.0,1.8,337.5,0.00,22.0,28.2,"00:30:08",1
"20/08/20","00:50",0.0,26.1,78.3,1005.5,321.5,1.3,2.5,326.4,0.00,22.1,28.2,"00:47:20",1
"20/08/20","01:00",0.0,26.2,78.3,1005.7,330.1,1.6,3.1,348.4,0.00,22.2,28.0,"00:54:08",1
"20/08/20","01:10",0.0,26.1,78.3,1005.7,338.4,1.3,2.7,349.2,0.00,22.1,28.0,"01:01:52",1
"20/08/20","01:20",0.0,26.0,78.8,1005.5,336.1,1.0,1.9,354.6,0.00,22.1,28.1,"01:18:24",1
"20/08/20","01:30",0.0,26.0,79.1,1005.5,338.8,1.2,2.8,340.5,0.00,22.1,27.9,"01:20:40",1
"20/08/20","01:40",0.0,25.9,79.4,1005.5,329.1,1.2,2.7,340.4,0.00,22.1,27.8,"01:35:44",1
"20/08/20","01:50",0.0,25.8,79.6,1005.2,300.4,0.7,1.4,328.8,0.00,22.0,27.9,"01:40:32",1
"20/08/20","02:00",0.0,25.5,79.9,1006.0,320.6,0.5,1.1,326.5,0.00,21.8,27.8,"01:52:56",1
"20/08/20","02:10",0.0,25.5,80.6,1005.5,331.1,0.7,1.2,1.8,0.00,22.0,27.6,"02:01:04",1
"20/08/20","02:20",0.0,25.0,81.2,1006.0,322.1,0.3,0.8,308.3,0.00,21.6,27.5,"02:10:08",1
"20/08/20","02:30",0.0,24.9,82.0,1006.0,291.8,0.6,1.0,320.7,0.00,21.7,27.6,"02:28:56",1
"20/08/20","02:40",0.0,24.8,82.6,1005.7,302.3,0.6,1.0,298.8,0.00,21.7,27.3,"02:37:36",1
"20/08/20","02:50",0.0,24.8,83.0,1006.0,300.2,0.6,1.2,297.9,0.00,21.8,27.3,"02:40:56",1
"20/08/20","03:00",0.0,24.9,83.3,1005.7,274.6,0.6,1.1,266.2,0.00,21.9,27.6,"02:53:28",1
"20/08/20","03:10",0.0,24.8,83.6,1005.7,322.4,0.8,1.2,337.5,0.00,21.9,27.2,"03:08:40",1
"20/08/20","03:20",0.0,24.5,83.9,1005.5,301.1,0.5,1.0,326.2,0.00,21.6,27.2,"03:10:08",1
"20/08/20","03:30",0.0,24.5,84.3,1006.0,281.7,0.6,1.0,265.4,0.00,21.7,27.1,"03:26:16",1
"20/08/20","03:40",0.0,24.7,84.6,1006.0,275.3,0.7,1.4,273.7,0.00,22.0,27.2,"03:34:48",1
"20/08/20","03:50",0.0,24.7,84.6,1006.2,299.3,0.6,1.3,246.4,0.00,22.0,27.0,"03:41:04",1
"20/08/20","04:00",0.0,24.7,84.7,1006.0,312.7,0.7,1.7,336.6,0.00,22.0,27.1,"03:51:36",1
"20/08/20","04:10",0.0,24.6,84.9,1006.2,331.8,0.7,1.2,343.0,0.00,21.9,26.9,"04:02:56",1
"20/08/20","04:20",0.0,24.4,85.0,1006.2,290.0,0.3,1.1,324.0,0.00,21.8,27.1,"04:17:36",1
"20/08/20","04:30",0.0,24.3,85.4,1006.2,287.9,0.7,1.1,299.0,0.00,21.7,26.9,"04:28:16",1
"20/08/20","04:40",0.0,24.4,85.6,1006.7,294.9,0.7,1.2,331.5,0.00,21.9,27.0,"04:31:12",1
"20/08/20","04:50",0.0,24.4,85.8,1006.7,283.3,0.6,1.0,308.3,0.00,21.9,26.7,"04:42:24",1
"20/08/20","05:00",0.0,24.4,85.9,1006.7,295.5,0.6,1.2,284.8,0.00,21.9,26.8,"04:54:24",1
"20/08/20","05:10",0.0,24.4,86.1,1006.7,300.7,0.7,1.3,326.9,0.00,22.0,26.7,"05:01:28",1
"20/08/20","05:20",0.0,24.4,86.2,1006.7,327.3,0.8,1.2,332.9,0.00,22.0,26.8,"05:10:08",1
"20/08/20","05:30",0.0,24.2,86.5,1007.1,319.0,0.7,1.1,342.0,0.00,21.8,26.6,"05:26:08",1
"20/08/20","05:40",0.0,24.3,86.8,1006.9,282.0,0.7,1.0,317.4,0.00,22.0,26.6,"05:37:04",1
"20/08/20","05:50",0.0,24.5,87.0,1006.9,311.2,0.7,1.8,351.2,0.00,22.2,26.7,"05:47:04",1
"20/08/20","06:00",0.0,24.7,87.2,1007.4,327.7,0.8,1.3,326.1,0.00,22.5,26.7,"05:50:48",1
"20/08/20","06:10",0.0,25.0,87.3,1006.7,319.2,0.7,1.0,338.8,0.01,22.8,26.4,"06:04:24",1
"20/08/20","06:20",0.0,25.2,87.3,1006.9,334.3,0.8,1.2,339.5,0.01,23.0,26.6,"06:18:32",1
"20/08/20","06:30",0.0,25.7,87.3,1007.1,315.3,0.7,1.1,334.3,0.02,23.5,26.6,"06:21:36",1
"20/08/20","06:40",0.0,26.1,87.0,1006.7,296.7,0.7,1.3,325.2,0.03,23.8,26.8,"06:37:04",1
"20/08/20","06:50",0.0,26.7,86.3,1007.4,341.5,0.7,1.4,349.7,0.05,24.3,26.7,"06:44:16",1
"20/08/20","07:00",0.0,27.4,85.3,1006.9,355.9,0.5,1.6,349.2,0.07,24.8,26.9,"06:53:52",1
"20/08/20","07:10",0.0,27.9,83.1,1007.1,334.1,0.7,1.7,345.7,0.09,24.8,27.0,"07:08:08",1
"20/08/20","07:20",0.0,28.9,80.7,1006.9,21.3,0.3,1.2,342.8,0.11,25.3,27.2,"07:11:44",1
"20/08/20","07:30",0.0,29.6,76.8,1006.4,172.6,0.6,1.3,202.9,0.13,25.1,27.4,"07:27:20",1
"20/08/20","07:40",0.0,30.5,73.7,1006.7,127.4,0.2,1.1,166.0,0.15,25.3,27.6,"07:39:04",1
"20/08/20","07:50",0.0,31.4,71.4,1007.4,131.1,0.3,1.0,131.7,0.18,25.6,27.7,"07:41:28",1
"20/08/20","08:00",0.0,31.7,69.2,1007.6,45.5,0.6,1.6,8.8,0.20,25.4,27.9,"07:56:16",1
"20/08/20","08:10",0.0,31.8,68.8,1007.8,19.7,0.7,1.9,11.2,0.23,25.4,27.8,"08:05:12",1
"20/08/20","08:20",0.0,32.1,69.0,1007.8,120.0,0.8,1.9,62.0,0.25,25.7,28.4,"08:12:40",1
"20/08/20","08:30",0.0,32.3,68.3,1008.1,111.1,0.8,1.8,110.1,0.27,25.7,28.5,"08:21:12",1
"20/08/20","08:40",0.0,32.4,67.6,1008.6,144.8,0.7,1.6,137.9,0.24,25.7,28.9,"08:36:56",1
"20/08/20","08:50",0.0,32.3,67.3,1008.6,122.7,0.8,2.1,203.6,0.28,25.5,29.0,"08:47:28",1
"20/08/20","09:00",0.0,32.7,65.6,1008.6,137.2,1.0,2.6,208.8,0.34,25.4,29.2,"08:58:40",1
"20/08/20","09:10",0.0,33.1,65.6,1008.6,181.8,0.8,2.1,218.2,0.35,25.8,29.3,"09:00:16",1
"20/08/20","09:20",0.0,33.3,65.2,1008.8,173.9,1.2,2.9,213.3,0.38,25.9,29.7,"09:11:36",1
"20/08/20","09:30",0.0,33.7,64.3,1008.8,304.6,0.6,1.4,312.4,0.40,26.1,30.0,"09:23:28",1
"20/08/20","09:40",0.0,34.3,62.2,1009.5,121.8,0.7,2.5,116.8,0.42,26.1,30.0,"09:34:00",1
"20/08/20","09:50",0.0,34.2,60.7,1009.0,32.3,1.1,2.2,12.0,0.38,25.6,30.6,"09:49:52",1
"20/08/20","10:00",0.0,34.4,60.5,1008.8,35.4,1.0,2.2,3.5,0.46,25.7,30.7,"09:50:24",1
"20/08/20","10:10",0.0,34.8,60.2,1009.0,48.3,1.1,2.1,17.3,0.48,26.0,30.7,"10:00:40",1
"20/08/20","10:20",0.0,35.3,57.9,1009.5,140.2,0.8,2.7,196.9,0.48,25.8,31.3,"10:19:28",1
"20/08/20","10:30",0.0,35.4,56.8,1009.3,152.0,1.2,2.9,215.1,0.49,25.6,31.6,"10:24:24",1
"20/08/20","10:40",0.0,35.4,56.4,1009.3,137.2,1.2,2.7,124.8,0.50,25.4,31.8,"10:34:56",1
"20/08/20","10:50",0.0,35.5,55.4,1009.3,140.0,1.5,3.1,214.2,0.51,25.2,32.1,"10:43:52",1
"20/08/20","11:00",0.0,36.2,55.5,1009.3,146.0,1.1,2.0,177.8,0.52,25.9,32.4,"10:51:52",1
"20/08/20","11:10",0.0,36.4,52.8,1009.0,132.1,1.2,2.9,210.1,0.52,25.3,33.0,"11:09:20",1
"20/08/20","11:20",0.0,36.5,53.4,1009.3,182.9,1.6,3.1,226.9,0.56,25.5,33.0,"11:11:44",1
"20/08/20","11:30",0.0,36.7,52.0,1009.0,169.6,1.3,3.1,203.1,0.56,25.3,33.3,"11:26:32",1
"20/08/20","11:40",0.0,37.0,52.6,1009.0,150.6,1.3,3.3,137.6,0.57,25.7,33.6,"11:35:28",1
"20/08/20","11:50",0.0,36.7,51.4,1008.6,183.2,1.5,3.1,224.1,0.57,25.1,33.7,"11:44:16",1
"20/08/20","12:00",0.0,37.2,50.9,1008.6,265.5,1.1,4.1,348.0,0.55,25.4,34.3,"11:51:52",1
"20/08/20","12:10",0.0,37.1,49.2,1008.6,223.5,1.5,3.1,225.9,0.58,24.7,34.1,"12:01:36",1
"20/08/20","12:20",0.0,37.3,48.4,1008.6,203.0,1.8,3.6,213.3,0.60,24.6,34.5,"12:19:04",1
"20/08/20","12:30",0.0,37.8,47.4,1008.8,151.9,1.2,2.6,182.1,0.59,24.7,34.7,"12:24:48",1
"20/08/20","12:40",0.0,37.9,47.7,1008.3,192.7,1.7,3.2,187.0,0.58,24.9,35.0,"12:32:16",1
"20/08/20","12:50",0.0,37.7,48.5,1008.3,199.2,1.6,3.3,206.2,0.56,25.0,35.1,"12:46:00",1
"20/08/20","13:00",0.0,38.0,47.9,1008.3,170.2,1.6,3.5,185.1,0.59,25.1,35.6,"12:54:32",1
"20/08/20","13:10",0.0,38.1,47.1,1008.1,201.7,1.8,4.4,206.1,0.57,24.9,35.5,"13:09:12",1
"20/08/20","13:20",0.0,38.0,48.3,1008.3,212.1,2.1,4.3,213.6,0.56,25.2,35.7,"13:16:00",1
"20/08/20","13:30",0.0,37.9,47.2,1007.8,163.2,2.0,5.1,196.5,0.50,24.7,35.7,"13:20:16",1
"20/08/20","13:40",0.0,38.2,46.1,1008.1,182.7,1.6,4.5,219.3,0.50,24.6,36.1,"13:39:52",1
"20/08/20","13:50",0.0,38.7,46.9,1008.1,187.0,1.0,3.6,224.0,0.52,25.4,35.8,"13:40:08",1
"20/08/20","14:00",0.0,38.8,45.8,1008.1,221.5,1.1,3.5,230.0,0.48,25.1,36.0,"13:53:04",1
"20/08/20","14:10",0.0,38.6,44.4,1007.8,207.7,1.6,4.4,206.0,0.47,24.4,35.9,"14:04:40",1
"20/08/20","14:20",0.0,38.8,45.3,1007.8,211.8,1.6,4.2,228.7,0.43,24.9,36.0,"14:12:00",1
"20/08/20","14:30",0.0,38.6,46.1,1007.8,216.8,1.7,4.7,227.1,0.41,25.0,36.0,"14:22:40",1
"20/08/20","14:40",0.0,37.8,45.4,1007.4,249.7,1.0,2.7,227.4,0.20,24.0,35.8,"14:36:24",1
"20/08/20","14:50",0.0,37.7,45.4,1006.9,175.5,0.7,1.9,185.7,0.22,23.9,35.8,"14:41:52",1
"20/08/20","15:00",0.0,37.4,46.2,1006.4,339.7,0.6,2.1,349.1,0.18,23.9,35.5,"14:53:44",1
"20/08/20","15:10",0.0,38.3,45.2,1006.7,243.1,1.0,2.1,211.4,0.38,24.4,35.6,"15:09:52",1
"20/08/20","15:20",0.0,38.2,43.8,1006.9,256.3,1.3,2.7,203.5,0.33,23.8,35.5,"15:11:28",1
"20/08/20","15:30",0.0,38.8,43.6,1006.4,211.0,0.8,1.8,173.9,0.32,24.2,35.6,"15:28:40",1
"20/08/20","15:40",0.0,38.5,45.1,1006.7,198.6,1.5,3.3,202.9,0.31,24.5,35.5,"15:34:24",1
"20/08/20","15:50",0.0,38.5,43.6,1006.7,222.6,1.5,4.0,230.5,0.31,24.0,35.5,"15:40:56",1
"20/08/20","16:00",0.0,38.4,42.9,1006.9,243.4,1.2,3.4,227.5,0.29,23.6,35.4,"15:57:52",1
"20/08/20","16:10",0.0,38.3,44.6,1006.0,249.5,1.2,3.6,212.8,0.26,24.2,35.2,"16:05:28",1
"20/08/20","16:20",0.0,38.1,45.2,1006.4,248.1,1.2,2.7,218.1,0.23,24.2,35.2,"16:12:16",1
"20/08/20","16:30",0.0,38.3,44.9,1006.7,251.1,0.7,2.1,235.2,0.19,24.3,35.2,"16:20:40",1
"20/08/20","16:40",0.0,38.2,45.3,1006.4,248.1,0.7,1.9,306.8,0.16,24.3,34.7,"16:34:08",1
"20/08/20","16:50",0.0,37.9,46.5,1006.2,336.2,1.1,3.6,348.6,0.15,24.5,34.8,"16:44:48",1
"20/08/20","17:00",0.0,37.5,46.0,1006.2,270.2,1.1,2.1,232.1,0.13,24.0,34.6,"16:56:48",1
"20/08/20","17:10",0.0,37.2,48.6,1005.7,289.6,1.0,2.0,348.3,0.11,24.6,34.5,"17:02:24",1
"20/08/20","17:20",0.0,37.1,51.2,1005.7,336.0,0.8,2.4,351.8,0.10,25.4,34.4,"17:15:04",1
"20/08/20","17:30",0.0,36.8,51.0,1005.7,4.3,0.8,2.4,342.8,0.10,25.0,34.2,"17:24:08",1
"20/08/20","17:40",0.0,36.6,52.4,1005.7,40.7,1.1,2.8,34.3,0.08,25.3,34.2,"17:37:52",1
"20/08/20","17:50",0.0,35.9,54.2,1005.2,10.9,1.1,2.2,40.1,0.03,25.2,34.0,"17:40:08",1
"20/08/20","18:00",0.0,34.7,57.5,1005.5,359.9,1.5,5.1,330.5,0.01,25.1,34.0,"17:58:40",1
"20/08/20","18:10",0.0,34.3,59.2,1004.8,1.2,1.2,2.7,331.8,0.00,25.2,33.8,"18:03:44",1
"20/08/20","18:20",0.0,33.8,60.3,1005.0,354.2,1.2,2.6,7.8,0.00,25.1,33.6,"18:11:12",1
"20/08/20","18:30",0.0,33.3,61.5,1004.5,352.1,1.2,3.1,341.9,0.00,24.9,33.3,"18:22:08",1
"20/08/20","18:40",0.0,33.1,62.4,1004.3,348.1,1.0,4.3,346.3,0.00,25.0,33.2,"18:30:32",1
"20/08/20","18:50",0.0,32.7,63.1,1004.3,355.2,1.1,2.6,339.0,0.00,24.8,33.1,"18:43:12",1
"20/08/20","19:00",0.0,32.6,63.4,1004.5,356.0,1.0,3.2,342.0,0.00,24.8,32.8,"18:56:56",1
"20/08/20","19:10",0.0,32.4,63.7,1004.5,354.8,0.7,2.0,333.4,0.00,24.7,32.8,"19:04:40",1
"20/08/20","19:20",0.0,32.3,63.9,1004.5,41.4,0.1,0.8,62.5,0.00,24.6,32.5,"19:14:32",1
"20/08/20","19:30",0.0,32.1,64.5,1004.3,316.3,0.2,0.6,345.5,0.00,24.6,32.5,"19:23:44",1
"20/08/20","19:40",0.0,31.9,65.0,1004.3,340.3,0.8,2.4,347.4,0.00,24.5,32.4,"19:39:28",1
"20/08/20","19:50",0.0,31.9,65.4,1004.5,5.3,0.7,2.2,358.6,0.00,24.6,32.2,"19:42:16",1
"20/08/20","20:00",0.0,31.7,66.2,1004.8,359.3,0.7,1.4,3.0,0.00,24.7,32.1,"19:51:12",1
"20/08/20","20:10",0.0,31.5,66.8,1004.5,323.8,0.8,2.1,354.1,0.00,24.6,31.9,"20:01:20",1
"20/08/20","20:20",0.0,31.3,67.4,1005.2,281.0,0.3,1.6,356.4,0.00,24.6,32.0,"20:16:32",1
"20/08/20","20:30",0.0,31.1,68.3,1004.8,278.9,0.5,0.9,311.6,0.00,24.6,31.8,"20:24:48",1
"20/08/20","20:40",0.0,30.8,69.6,1004.5,318.9,1.0,2.0,318.4,0.00,24.6,31.6,"20:32:48",1
"20/08/20","20:50",0.0,30.6,70.1,1004.5,242.3,0.5,1.0,258.6,0.00,24.6,31.6,"20:43:12",1
"20/08/20","21:00",0.0,30.5,70.9,1004.5,242.0,0.6,1.4,306.7,0.00,24.7,31.4,"20:59:44",1
"20/08/20","21:10",0.0,30.0,72.2,1004.5,311.9,0.8,1.8,335.6,0.00,24.5,31.2,"21:05:28",1
"20/08/20","21:20",0.0,29.8,73.2,1004.5,343.2,1.1,2.1,335.1,0.00,24.5,31.2,"21:14:56",1
"20/08/20","21:30",0.0,29.7,73.9,1004.3,336.7,1.1,2.1,334.3,0.00,24.6,30.9,"21:22:08",1
"20/08/20","21:40",0.0,29.4,74.9,1005.2,334.3,1.5,2.4,333.8,0.00,24.5,30.7,"21:34:32",1
"20/08/20","21:50",0.0,29.2,75.7,1005.2,342.9,1.3,2.7,336.4,0.00,24.5,30.8,"21:41:20",1
"20/08/20","22:00",0.0,29.1,76.0,1005.2,303.6,0.8,2.0,322.3,0.00,24.5,30.6,"21:57:04",1
"20/08/20","22:10",0.0,29.1,75.8,1005.2,302.1,0.7,1.9,331.5,0.00,24.4,30.6,"22:00:16",1
"20/08/20","22:20",0.0,29.0,76.3,1005.2,319.4,0.7,1.9,345.9,0.00,24.4,30.5,"22:19:12",1
"20/08/20","22:30",0.0,28.7,76.9,1005.5,280.8,0.6,1.3,231.9,0.00,24.3,30.4,"22:29:28",1
"20/08/20","22:40",0.0,28.6,77.3,1005.5,305.7,0.8,1.9,350.0,0.00,24.3,30.2,"22:39:12",1
"20/08/20","22:50",0.0,28.6,77.7,1005.2,319.0,0.8,1.7,347.5,0.00,24.4,30.0,"22:49:52",1
"20/08/20","23:00",0.0,28.6,77.7,1005.7,332.7,1.7,3.2,324.0,0.00,24.4,30.1,"22:52:24",1
"20/08/20","23:10",0.0,28.5,77.7,1005.7,313.2,1.2,2.2,344.1,0.00,24.3,30.1,"23:02:08",1
"20/08/20","23:20",0.0,28.6,77.6,1005.5,324.5,1.8,3.2,343.0,0.00,24.3,29.9,"23:17:36",1
"20/08/20","23:30",0.0,28.5,77.6,1005.5,336.5,1.5,3.3,335.8,0.00,24.2,29.8,"23:27:20",1
"20/08/20","23:40",0.0,28.4,77.9,1005.7,322.9,1.3,2.1,334.8,0.00,24.2,29.7,"23:35:04",1
"20/08/20","23:50",0.0,28.3,78.2,1005.5,330.1,1.3,2.6,340.9,0.00,24.2,29.6,"23:48:08",1
"20/08/20","24:00",0.0,28.2,78.5,1005.7,334.6,1.5,2.6,329.6,0.00,24.1,29.7,"23:53:20",1
